{"data":{"norad_id":47613,"intl_designator":"2021-010A","name":"TJS-6","alt_names":[],"object_type":"PAYLOAD","status":"ACTIVE","operator":null,"country":"PRC","launch_date":"2021-02-04","launch_site_code":"XICLF","launch_vehicle":null,"mission":null,"orbit_class":"UNKNOWN","rcs_meters":null,"size_class":null,"mass_kg":null,"dimensions":null,"purposes":["comms"],"wikipedia_slug":null,"has_3d_model":false,"image_url":null,"decayed_at":null,"tle_current":{"epoch":"2026-05-25T02:52:50.279232Z","epoch_age_seconds":71659,"freshness":"FRESH","line1":"1 47613U 21010A   26145.12002638  .00000040  00000+0  00000+0 0  9997","line2":"2 47613   0.5432  87.8530 0002265 325.6172  50.9636  1.00269208 19589","mean_motion":1.00269208,"eccentricity":0.0002265,"inclination_deg":0.5432,"raan_deg":87.853,"arg_perigee_deg":325.6172,"mean_anomaly_deg":50.9636,"bstar":0,"rev_number":1958,"period_min":1436.133812885,"perigee_km":35777.766927889,"apogee_km":35796.867878733,"semimajor_km":42165.454403311,"source":"CELESTRAK","updated_at":"2026-05-25T13:38:14.099020Z"}}}